SJY273 WAJJ-WAVV

Flight info

Callsign SJY273
Flight time 0h 30m
Altitude 20000
Route ANLEP DCT
Aircraft B738/M-SDE2E3FGHIRWXY/LB1

Departure

Time 2026-04-26 03:37
Airport Dortheys Hiyo Eluay International Airport (WAJJ)

Arrival

Time 2026-04-26 04:07
Airport Wamena Airport (WAVV)
Time Latitude Longitude Altitude Speed Heading
2026-04-26 03:15 -2.57108 140.51234 322 ft 0 kts 36°
2026-04-26 03:30 -2.57113 140.51231 322 ft 2 kts 32°
2026-04-26 03:30 -2.57126 140.51222 322 ft 2 kts 37°
2026-04-26 03:30 -2.57138 140.51213 321 ft 2 kts 36°
2026-04-26 03:31 -2.57151 140.51205 321 ft 2 kts 10°
2026-04-26 03:31 -2.57166 140.51207 321 ft 2 kts 340°
2026-04-26 03:31 -2.57179 140.51215 321 ft 2 kts 310°
2026-04-26 03:31 -2.57187 140.51227 321 ft 1 kts 303°
2026-04-26 03:32 -2.57189 140.51230 320 ft 0 kts 306°
2026-04-26 03:34 -2.57188 140.51228 320 ft 1 kts 306°
2026-04-26 03:34 -2.57171 140.51205 321 ft 6 kts 306°
2026-04-26 03:34 -2.57137 140.51157 321 ft 10 kts 305°
2026-04-26 03:35 -2.57105 140.51097 322 ft 8 kts 270°
2026-04-26 03:35 -2.57143 140.51041 321 ft 10 kts 229°
2026-04-26 03:35 -2.57185 140.50983 321 ft 8 kts 256°
2026-04-26 03:35 -2.57168 140.50932 321 ft 7 kts 294°
2026-04-26 03:36 -2.57157 140.50877 321 ft 7 kts 282°
2026-04-26 03:36 -2.57128 140.50865 321 ft 4 kts 42°
2026-04-26 03:36 -2.57133 140.50891 321 ft 3 kts 127°
2026-04-26 03:36 -2.57153 140.50915 321 ft 10 kts 127°
2026-04-26 03:37 -2.57353 140.51183 317 ft 84 kts 127°
2026-04-26 03:37 -2.57849 140.51848 301 ft 149 kts 127°
2026-04-26 03:37 -2.58556 140.52794 490 ft 182 kts 128°
2026-04-26 03:37 -2.59237 140.53690 1159 ft 181 kts 128°
2026-04-26 03:38 -2.59620 140.54192 1577 ft 179 kts 128°
2026-04-26 03:38 -2.60399 140.55215 2131 ft 184 kts 128°
2026-04-26 03:38 -2.61204 140.56306 2498 ft 195 kts 126°
2026-04-26 03:38 -2.62021 140.57452 2898 ft 204 kts 127°
2026-04-26 03:39 -2.62922 140.58640 3104 ft 226 kts 129°
2026-04-26 03:39 -2.63974 140.59975 3426 ft 245 kts 129°
2026-04-26 03:39 -2.65255 140.61177 3766 ft 264 kts 153°
2026-04-26 03:39 -2.67031 140.61534 4570 ft 259 kts 182°
2026-04-26 03:40 -2.68899 140.61427 5058 ft 273 kts 189°
2026-04-26 03:40 -2.70657 140.60686 5610 ft 278 kts 221°
2026-04-26 03:40 -2.71833 140.59100 6383 ft 278 kts 245°
2026-04-26 03:40 -2.72499 140.57251 7001 ft 284 kts 262°
2026-04-26 03:41 -2.72571 140.55255 7808 ft 283 kts 272°
2026-04-26 03:41 -2.72698 140.53221 8395 ft 293 kts 259°
2026-04-26 03:41 -2.73368 140.51266 9106 ft 297 kts 240°
2026-04-26 03:41 -2.74560 140.49483 9934 ft 298 kts 238°
2026-04-26 03:42 -2.75606 140.47653 10577 ft 304 kts 244°
2026-04-26 03:42 -2.76598 140.45648 10898 ft 324 kts 244°
2026-04-26 03:42 -2.77633 140.43521 11365 ft 336 kts 244°
2026-04-26 03:42 -2.78666 140.41376 12015 ft 342 kts 245°
2026-04-26 03:43 -2.79724 140.39149 12681 ft 347 kts 245°
2026-04-26 03:43 -2.80771 140.36935 13361 ft 352 kts 245°
2026-04-26 03:43 -2.81843 140.34666 14041 ft 356 kts 245°
2026-04-26 03:43 -2.82914 140.32396 14712 ft 360 kts 245°
2026-04-26 03:44 -2.83999 140.30087 15375 ft 364 kts 245°
2026-04-26 03:44 -2.85110 140.27727 16033 ft 368 kts 245°
2026-04-26 03:44 -2.86224 140.25357 16667 ft 372 kts 245°
2026-04-26 03:44 -2.87338 140.22986 17281 ft 375 kts 245°
2026-04-26 03:45 -2.88467 140.20583 17882 ft 379 kts 245°
2026-04-26 03:45 -2.89609 140.18149 18471 ft 383 kts 245°
2026-04-26 03:45 -2.90794 140.15630 18930 ft 389 kts 245°
2026-04-26 03:45 -2.91962 140.13156 19166 ft 387 kts 245°
2026-04-26 03:46 -2.93125 140.10702 19422 ft 386 kts 245°
2026-04-26 03:46 -2.94291 140.08231 19644 ft 388 kts 245°
2026-04-26 03:46 -2.94984 140.06760 19770 ft 389 kts 245°
2026-04-26 03:47 -2.97346 140.01735 19802 ft 390 kts 245°
2026-04-26 03:47 -2.98505 139.99265 19803 ft 388 kts 245°
2026-04-26 03:47 -2.99661 139.96797 19804 ft 387 kts 245°
2026-04-26 03:47 -3.00824 139.94315 19804 ft 387 kts 245°
2026-04-26 03:48 -3.01973 139.91862 19804 ft 387 kts 245°
2026-04-26 03:48 -3.03140 139.89374 19804 ft 387 kts 245°
2026-04-26 03:48 -3.04303 139.86888 19804 ft 386 kts 245°
2026-04-26 03:48 -3.05449 139.84439 19804 ft 386 kts 245°
2026-04-26 03:49 -3.06611 139.81955 19804 ft 386 kts 245°
2026-04-26 03:49 -3.07768 139.79483 19804 ft 386 kts 245°
2026-04-26 03:49 -3.08939 139.76981 19804 ft 386 kts 245°
2026-04-26 03:49 -3.10097 139.74506 19804 ft 386 kts 245°
2026-04-26 03:50 -3.11233 139.72076 19804 ft 386 kts 245°
2026-04-26 03:50 -3.12371 139.69644 19804 ft 386 kts 245°
2026-04-26 03:50 -3.13521 139.67186 19804 ft 386 kts 245°
2026-04-26 03:50 -3.14691 139.64684 19804 ft 386 kts 245°
2026-04-26 03:51 -3.15835 139.62238 19804 ft 386 kts 245°
2026-04-26 03:51 -3.17007 139.59735 19804 ft 386 kts 245°
2026-04-26 03:51 -3.18157 139.57275 19802 ft 386 kts 245°
2026-04-26 03:51 -3.19308 139.54813 19809 ft 387 kts 245°
2026-04-26 03:52 -3.20469 139.52328 19796 ft 391 kts 245°
2026-04-26 03:52 -3.21628 139.49852 19803 ft 386 kts 245°
2026-04-26 03:52 -3.22789 139.47368 19804 ft 385 kts 245°
2026-04-26 03:52 -3.23929 139.44928 19799 ft 381 kts 245°
2026-04-26 03:53 -3.25028 139.42570 19805 ft 376 kts 245°
2026-04-26 03:53 -3.25985 139.40521 19805 ft 376 kts 245°
2026-04-26 03:53 -3.27093 139.38144 19804 ft 377 kts 245°
2026-04-26 03:53 -3.28213 139.35747 19804 ft 377 kts 245°
2026-04-26 03:54 -3.29320 139.33375 19804 ft 377 kts 245°
2026-04-26 03:54 -3.30446 139.30965 19804 ft 377 kts 245°
2026-04-26 03:54 -3.31564 139.28572 19804 ft 377 kts 245°
2026-04-26 03:54 -3.32685 139.26170 19804 ft 377 kts 245°
2026-04-26 03:55 -3.33810 139.23763 19804 ft 377 kts 245°
2026-04-26 03:55 -3.34932 139.21358 19804 ft 376 kts 245°
2026-04-26 03:55 -3.36039 139.18988 19804 ft 377 kts 245°
2026-04-26 03:55 -3.37160 139.16586 19804 ft 377 kts 245°
2026-04-26 03:56 -3.38284 139.14178 19801 ft 376 kts 245°
2026-04-26 03:56 -3.39334 139.11752 19488 ft 368 kts 247°
2026-04-26 03:56 -3.40018 139.10298 19216 ft 365 kts 240°
2026-04-26 03:56 -3.41558 139.08319 18784 ft 359 kts 219°
2026-04-26 03:57 -3.43675 139.07074 18348 ft 354 kts 201°
2026-04-26 03:57 -3.45978 139.06195 17870 ft 351 kts 199°
2026-04-26 03:57 -3.48267 139.05376 17415 ft 348 kts 199°
2026-04-26 03:57 -3.50528 139.04587 16969 ft 345 kts 198°
2026-04-26 03:58 -3.52778 139.03819 16527 ft 341 kts 198°
2026-04-26 03:58 -3.54987 139.03079 16094 ft 338 kts 198°
2026-04-26 03:58 -3.57211 139.02339 15657 ft 335 kts 198°
2026-04-26 03:58 -3.59413 139.01610 15224 ft 332 kts 198°
2026-04-26 03:59 -3.61589 139.00893 14796 ft 330 kts 198°
2026-04-26 03:59 -3.63760 139.00177 14368 ft 327 kts 198°
2026-04-26 03:59 -3.65909 138.99469 13944 ft 324 kts 198°
2026-04-26 03:59 -3.68006 138.98779 13576 ft 319 kts 198°
2026-04-26 04:00 -3.70112 138.98085 13189 ft 316 kts 198°
2026-04-26 04:00 -3.72208 138.97395 12780 ft 313 kts 198°
2026-04-26 04:00 -3.74267 138.96719 12373 ft 310 kts 198°
2026-04-26 04:00 -3.76284 138.96056 11974 ft 308 kts 198°
2026-04-26 04:01 -3.78332 138.95381 11564 ft 306 kts 198°
2026-04-26 04:01 -3.80324 138.94696 11165 ft 303 kts 204°
2026-04-26 04:01 -3.82060 138.93536 10784 ft 299 kts 227°
2026-04-26 04:01 -3.83175 138.91826 10497 ft 291 kts 245°
2026-04-26 04:02 -3.84016 138.89999 10295 ft 282 kts 245°
2026-04-26 04:02 -3.84838 138.88264 10090 ft 275 kts 245°
2026-04-26 04:02 -3.85675 138.86554 9885 ft 270 kts 240°
2026-04-26 04:02 -3.86909 138.85190 9680 ft 269 kts 211°
2026-04-26 04:03 -3.88673 138.84680 9491 ft 262 kts 177°
2026-04-26 04:03 -3.90359 138.85169 9308 ft 250 kts 151°
2026-04-26 04:03 -3.91817 138.86029 9098 ft 240 kts 150°
2026-04-26 04:03 -3.93234 138.86816 8951 ft 229 kts 150°
2026-04-26 04:04 -3.94603 138.87610 8827 ft 225 kts 149°
2026-04-26 04:04 -3.95966 138.88419 8631 ft 229 kts 149°
2026-04-26 04:04 -3.97297 138.89208 8422 ft 218 kts 151°
2026-04-26 04:04 -3.98646 138.89853 8015 ft 213 kts 156°
2026-04-26 04:05 -3.99954 138.90439 7677 ft 195 kts 155°
2026-04-26 04:05 -4.01097 138.90970 7368 ft 170 kts 155°
2026-04-26 04:05 -4.02161 138.91460 7104 ft 168 kts 155°
2026-04-26 04:05 -4.03215 138.91948 6819 ft 169 kts 155°
2026-04-26 04:06 -4.04275 138.92439 6546 ft 168 kts 155°
2026-04-26 04:06 -4.04981 138.92758 6364 ft 168 kts 159°
2026-04-26 04:06 -4.06009 138.93275 6044 ft 163 kts 148°
2026-04-26 04:06 -4.07002 138.93848 5792 ft 163 kts 154°
2026-04-26 04:07 -4.08010 138.94357 5634 ft 162 kts 153°
2026-04-26 04:07 -4.09030 138.94884 5448 ft 162 kts 153°
2026-04-26 04:07 -4.09871 138.95312 5437 ft 102 kts 153°
2026-04-26 04:07 -4.10266 138.95520 5435 ft 48 kts 153°
2026-04-26 04:08 -4.10442 138.95619 5433 ft 15 kts 146°
2026-04-26 04:08 -4.10508 138.95651 5433 ft 5 kts 219°
2026-04-26 04:08 -4.10494 138.95633 5433 ft 4 kts 346°
2026-04-26 04:08 -4.10450 138.95616 5433 ft 8 kts 333°
2026-04-26 04:09 -4.10384 138.95581 5434 ft 12 kts 332°
2026-04-26 04:09 -4.10293 138.95534 5435 ft 16 kts 333°
2026-04-26 04:09 -4.10179 138.95474 5436 ft 19 kts 332°
2026-04-26 04:09 -4.10075 138.95403 5436 ft 15 kts 301°
2026-04-26 04:10 -4.10038 138.95308 5437 ft 11 kts 299°
2026-04-26 04:10 -4.09997 138.95277 5438 ft 4 kts 308°
2026-04-26 04:10 -4.09998 138.95261 5439 ft 0 kts 258°
2026-04-26 04:10 -4.10001 138.95253 5439 ft 1 kts 248°
2026-04-26 04:11 -4.10004 138.95245 5439 ft 1 kts 246°
2026-04-26 04:11 -4.10005 138.95244 5439 ft 0 kts 246°